,,Stat5,,Stat1,,Stat2,,Stat3,,Stat4,,Wind1,,Wind1,
time,status,PA1M_AVG,status,PR1M_SUM,status,RH1M_AVG,status,SR1M_AVG,status,TA1M_AVG,status,W1dAve1m,status,W1sAve1m,
2002-12-17, 00:00:00,VALID,919.034,VALID,0,VALID,97.3057,VALID,0.0169808,VALID,20.6762,VALID,120,VALID,0.958193,
2002-12-17, 00:01:00,VALID,919.014,VALID,0,VALID,97.0781,VALID,0.0339617,VALID,20.6757,VALID,119,VALID,1.4848,
2002-12-17, 00:02:00,VALID,919.01,VALID,0,VALID,96.8797,VALID,0,VALID,20.6986,VALID,103,VALID,1.20052,
2002-12-17, 00:03:01,VALID,919.025,VALID,0,VALID,96.8123,VALID,-0.0169808,VALID,20.7182,VALID,106,VALID,0.977214,
2002-12-17, 00:04:00,VALID,919.035,VALID,0.2,VALID,96.8225,VALID,0.0339617,VALID,20.7112,VALID,86,VALID,0.777734,
2002-12-17, 00:05:01,VALID,919.002,VALID,0,VALID,96.8874,VALID,0.0169808,VALID,20.7214,VALID,88,VALID,0.810045,
2002-12-17, 00:06:00,VALID,918.991,VALID,0,VALID,96.82,VALID,0.0339617,VALID,20.6951,VALID,108,VALID,1.08293,
2002-12-17, 00:07:00,VALID,918.982,VALID,0,VALID,96.853,VALID,0.0339617,VALID,20.6856,VALID,104,VALID,0.640862,
2002-12-17, 00:08:01,VALID,918.982,VALID,0,VALID,96.9408,VALID,0.0169808,VALID,20.6827,VALID,93,VALID,0.932075,
2002-12-17, 00:09:00,VALID,918.979,VALID,0,VALID,97.0603,VALID,0.0509425,VALID,20.663,VALID,112,VALID,0.655664,
2002-12-17, 00:10:00,VALID,918.989,VALID,0,VALID,97.1633,VALID,0.0169808,VALID,20.6401,VALID,90,VALID,0.636364,
2002-12-17, 00:11:00,VALID,918.973,VALID,0,VALID,97.3261,VALID,0.0169808,VALID,20.6342,VALID,83,VALID,0.570083,
2002-12-17, 00:12:01,VALID,918.965,VALID,0,VALID,97.424,VALID,0.0169808,VALID,20.6145,VALID,89,VALID,0.5627,
2002-12-17, 00:13:00,VALID,918.969,VALID,0,VALID,97.457,VALID,0,VALID,20.5952,VALID,114,VALID,0.86951,
2002-12-17, 00:14:00,VALID,918.976,VALID,0,VALID,97.56,VALID,0,VALID,20.5758,VALID,137,VALID,0.588695,
2002-12-17, 00:15:01,VALID,918.947,VALID,0,VALID,97.6529,VALID,0.0169808,VALID,20.5696,VALID,135,VALID,0.687099,
2002-12-17, 00:16:00,VALID,918.924,VALID,0,VALID,97.7215,VALID,0,VALID,20.5663,VALID,130,VALID,0.74451,
2002-12-17, 00:17:01,VALID,918.901,VALID,0,VALID,97.7953,VALID,0,VALID,20.5631,VALID,138,VALID,0.749349,
2002-12-17, 00:18:00,VALID,918.877,VALID,0,VALID,97.9212,VALID,0,VALID,20.5594,VALID,141,VALID,0.584961,
2002-12-17, 00:19:00,VALID,918.858,VALID,0,VALID,97.9123,VALID,0.0339617,VALID,20.5561,VALID,151,VALID,1.11837,
2002-12-17, 00:20:01,VALID,918.854,VALID,0,VALID,97.8907,VALID,0.0169808,VALID,20.5437,VALID,147,VALID,1.26389,
2002-12-17, 00:21:00,VALID,918.833,VALID,0,VALID,97.9199,VALID,0,VALID,20.5273,VALID,149,VALID,1.40703,
2002-12-17, 00:22:00,VALID,918.827,VALID,0,VALID,97.9352,VALID,0,VALID,20.5311,VALID,155,VALID,1.69673,
2002-12-17, 00:23:00,VALID,918.809,VALID,0,VALID,97.9593,VALID,0.0169808,VALID,20.5179,VALID,149,VALID,1.5386,
2002-12-17, 00:24:01,VALID,918.805,VALID,0,VALID,98.0204,VALID,0.0169808,VALID,20.5047,VALID,148,VALID,1.66226,
2002-12-17, 00:25:00,VALID,918.793,VALID,0,VALID,98.0623,VALID,0.0169808,VALID,20.4885,VALID,146,VALID,1.7747,
2002-12-17, 00:26:00,VALID,918.765,VALID,0,VALID,98.1323,VALID,0.0169808,VALID,20.4794,VALID,151,VALID,1.33709,
2002-12-17, 00:27:01,VALID,918.727,VALID,0,VALID,98.1933,VALID,0,VALID,20.453,VALID,145,VALID,1.29968,
2002-12-17, 00:28:00,VALID,918.706,VALID,0,VALID,98.2429,VALID,0.0339617,VALID,20.4627,VALID,134,VALID,0.852196,
2002-12-17, 00:29:01,VALID,918.687,VALID,0,VALID,98.2887,VALID,0.0509425,VALID,20.4659,VALID,138,VALID,0.755208,
2002-12-17, 00:30:00,VALID,918.684,VALID,0,VALID,98.2912,VALID,0.0339617,VALID,20.4657,VALID,103,VALID,0.745313,
2002-12-17, 00:31:00,VALID,918.689,VALID,0,VALID,98.295,VALID,0,VALID,20.4567,VALID,136,VALID,1.00568,
2002-12-17, 00:32:01,VALID,918.691,VALID,0,VALID,98.276,VALID,0.0169808,VALID,20.4667,VALID,152,VALID,1.32661,
2002-12-17, 00:33:00,VALID,918.679,VALID,0,VALID,98.309,VALID,0,VALID,20.4729,VALID,140,VALID,0.859961,
2002-12-17, 00:34:00,VALID,918.676,VALID,0,VALID,98.2531,VALID,0,VALID,20.492,VALID,136,VALID,0.883286,
2002-12-17, 00:35:00,VALID,918.679,VALID,0,VALID,98.1361,VALID,0,VALID,20.5017,VALID,142,VALID,1.06572,
2002-12-17, 00:36:01,VALID,918.25,VALID,0,VALID,98.07,VALID,0,VALID,20.5246,VALID,168,VALID,0.979768,
2002-12-17, 00:37:00,VALID,918.679,VALID,0,VALID,98.014,VALID,0.0339617,VALID,20.5373,VALID,164,VALID,1.01858,
2002-12-17, 00:38:00,VALID,918.693,VALID,0,VALID,97.9415,VALID,0,VALID,20.5276,VALID,176,VALID,1.07721,
2002-12-17, 00:39:01,VALID,918.719,VALID,0,VALID,97.8945,VALID,0,VALID,20.5413,VALID,169,VALID,0.948317,
2002-12-17, 00:40:00,VALID,918.746,VALID,0,VALID,97.8754,VALID,0.0509425,VALID,20.5343,VALID,170,VALID,1.02175,
2002-12-17, 00:41:01,VALID,918.761,VALID,0,VALID,97.85,VALID,0,VALID,20.5311,VALID,165,VALID,0.946398,
2002-12-17, 00:42:00,VALID,918.771,VALID,0,VALID,97.8245,VALID,0.0169808,VALID,20.5348,VALID,163,VALID,1.23086,
2002-12-17, 00:43:00,VALID,918.769,VALID,0,VALID,97.7622,VALID,0.0169808,VALID,20.5305,VALID,157,VALID,1.04569,
2002-12-17, 00:44:01,VALID,918.773,VALID,0,VALID,97.7381,VALID,0.0169808,VALID,20.5499,VALID,153,VALID,0.610197,
2002-12-17, 00:45:00,VALID,918.761,VALID,0,VALID,97.7215,VALID,0.0509425,VALID,20.5566,VALID,172,VALID,0.462891,
2002-12-17, 00:46:00,VALID,918.726,VALID,0,VALID,97.7343,VALID,0.0169808,VALID,20.5733,VALID,174,VALID,0.522017,
2002-12-17, 00:47:00,VALID,918.688,VALID,0,VALID,97.6694,VALID,0,VALID,20.5601,VALID,172,VALID,1.08571,
2002-12-17, 00:48:01,VALID,918.644,VALID,0,VALID,97.5842,VALID,0,VALID,20.5564,VALID,152,VALID,0.955929,
2002-12-17, 00:49:00,VALID,918.599,VALID,0,VALID,97.5829,VALID,0,VALID,20.5626,VALID,158,VALID,0.695946,
2002-12-17, 00:50:01,VALID,918.569,VALID,0,VALID,97.541,VALID,0.0339617,VALID,20.5725,VALID,124,VALID,0.799862,
2002-12-17, 00:51:01,VALID,918.553,VALID,0,VALID,97.4774,VALID,0,VALID,20.5497,VALID,120,VALID,0.911458,
2002-12-17, 00:52:00,VALID,918.522,VALID,0,VALID,97.5244,VALID,0.0339617,VALID,20.5599,VALID,148,VALID,0.607897,
2002-12-17, 00:53:01,VALID,918.513,VALID,0,VALID,97.5486,VALID,0.0169808,VALID,20.5499,VALID,126,VALID,0.600477,
2002-12-17, 00:54:01,VALID,918.496,VALID,0,VALID,97.6058,VALID,0,VALID,20.5504,VALID,140,VALID,0.393164,
2002-12-17, 00:55:01,VALID,918.477,VALID,0,VALID,97.6478,VALID,0.0169808,VALID,20.5601,VALID,145,VALID,0.496449,
2002-12-17, 00:56:01,VALID,918.441,VALID,0,VALID,97.5524,VALID,0.0509425,VALID,20.5402,VALID,109,VALID,0.470052,
2002-12-17, 00:57:00,VALID,918.396,VALID,0,VALID,97.5092,VALID,0,VALID,20.537,VALID,96,VALID,0.408594,
2002-12-17, 00:58:01,VALID,918.385,VALID,0,VALID,97.4481,VALID,0.0169808,VALID,20.5278,VALID,110,VALID,0.552794,
2002-12-17, 00:59:00,VALID,918.384,VALID,0,VALID,97.4405,VALID,0,VALID,20.5313,VALID,126,VALID,0.606847,
2002-12-17, 01:00:01,VALID,918.365,VALID,0,VALID,97.382,VALID,0.0169808,VALID,20.5308,VALID,153,VALID,1.10797,
2002-12-17, 01:01:01,VALID,918.377,VALID,0,VALID,97.2994,VALID,0.0169808,VALID,20.5208,VALID,161,VALID,0.969383,
2002-12-17, 01:02:01,VALID,918.348,VALID,0,VALID,97.2231,VALID,0.0169808,VALID,20.537,VALID,157,VALID,0.830423,
2002-12-17, 01:03:01,VALID,918.351,VALID,0,VALID,97.1074,VALID,0.0339617,VALID,20.5405,VALID,129,VALID,0.974359,
2002-12-17, 01:04:01,VALID,918.326,VALID,0,VALID,97.0145,VALID,0.0169808,VALID,20.5601,VALID,123,VALID,0.693834,
2002-12-17, 01:05:01,VALID,918.31,VALID,0,VALID,96.7907,VALID,0.0169808,VALID,20.5634,VALID,87,VALID,1.51042,
2002-12-17, 01:06:01,VALID,918.3,VALID,0,VALID,96.5199,VALID,-0.0169808,VALID,20.622,VALID,76,VALID,1.4293,
2002-12-17, 01:07:01,VALID,918.283,VALID,0,VALID,95.9019,VALID,-0.0339617,VALID,20.6842,VALID,129,VALID,1.37902,
2002-12-17, 01:08:01,VALID,918.271,VALID,0,VALID,95.4416,VALID,-0.0849042,VALID,20.7553,VALID,119,VALID,1.44705,
2002-12-17, 01:09:01,VALID,918.27,VALID,0,VALID,95.3424,VALID,-0.0679233,VALID,20.7745,VALID,130,VALID,1.02422,
2002-12-17, 01:10:01,VALID,918.246,VALID,0,VALID,95.3856,VALID,-0.0849042,VALID,20.7745,VALID,117,VALID,1.03717,
2002-12-17, 01:11:01,VALID,918.23,VALID,0,VALID,95.4085,VALID,-0.118866,VALID,20.7685,VALID,96,VALID,0.984605,
2002-12-17, 01:12:01,VALID,918.208,VALID,0,VALID,95.5891,VALID,-0.101885,VALID,20.7295,VALID,92,VALID,0.961739,
2002-12-17, 01:13:01,VALID,918.189,VALID,0,VALID,95.6577,VALID,-0.0679233,VALID,20.6974,VALID,132,VALID,1.30574,
2002-12-17, 01:14:01,VALID,918.173,VALID,0,VALID,95.4416,VALID,-0.0849042,VALID,20.6772,VALID,115,VALID,1.09444,
2002-12-17, 01:15:01,VALID,918.128,VALID,0,VALID,95.144,VALID,-0.0849042,VALID,20.716,VALID,111,VALID,1.19972,
2002-12-17, 01:16:01,VALID,918.107,VALID,0,VALID,94.9596,VALID,-0.0679233,VALID,20.7645,VALID,105,VALID,0.888302,
2002-12-17, 01:17:01,VALID,918.086,VALID,0,VALID,94.8261,VALID,-0.0849042,VALID,20.7909,VALID,119,VALID,0.989366,
2002-12-17, 01:18:01,VALID,918.084,VALID,0,VALID,94.9634,VALID,-0.101885,VALID,20.7906,VALID,136,VALID,0.563477,
2002-12-17, 01:19:01,VALID,918.079,VALID,0,VALID,95.0779,VALID,-0.101885,VALID,20.7812,VALID,133,VALID,0.522964,
2002-12-17, 01:20:01,VALID,918.087,VALID,0,VALID,95.3119,VALID,-0.0509425,VALID,20.7451,VALID,64,VALID,0.440104,
2002-12-17, 01:21:01,VALID,918.094,VALID,0,VALID,95.4695,VALID,-0.0679233,VALID,20.7262,VALID,72,VALID,0.419531,
2002-12-17, 01:22:01,VALID,918.105,VALID,0,VALID,95.5191,VALID,-0.101885,VALID,20.691,VALID,78,VALID,0.65767,
2002-12-17, 01:23:01,VALID,918.118,VALID,0,VALID,95.5382,VALID,-0.0849042,VALID,20.6748,VALID,87,VALID,0.680377,
2002-12-17, 01:24:01,VALID,918.124,VALID,0,VALID,95.6374,VALID,-0.0679233,VALID,20.6519,VALID,110,VALID,0.429087,
2002-12-17, 01:25:01,VALID,918.109,VALID,0,VALID,95.6793,VALID,-0.0679233,VALID,20.6524,VALID,133,VALID,0.625422,
2002-12-17, 01:26:00,VALID,918.104,VALID,0,VALID,95.7213,VALID,-0.101885,VALID,20.6398,VALID,119,VALID,0.554228,
2002-12-17, 01:27:00,VALID,918.074,VALID,0,VALID,95.7569,VALID,-0.101885,VALID,20.6069,VALID,107,VALID,0.691907,
2002-12-17, 01:28:00,VALID,918.05,VALID,0,VALID,95.8294,VALID,-0.0679233,VALID,20.5905,VALID,109,VALID,0.840583,
2002-12-17, 01:29:00,VALID,918.011,VALID,0,VALID,95.9184,VALID,-0.101885,VALID,20.5846,VALID,111,VALID,0.510851,
2002-12-17, 01:30:00,VALID,917.984,VALID,0,VALID,96.029,VALID,-0.101885,VALID,20.5647,VALID,83,VALID,0.427734,
2002-12-17, 01:31:00,VALID,917.972,VALID,0,VALID,96.1854,VALID,-0.0849042,VALID,20.542,VALID,66,VALID,0.377131,
2002-12-17, 01:32:00,VALID,917.965,VALID,0,VALID,96.3686,VALID,-0.118866,VALID,20.5428,VALID,41,VALID,0.551866,
2002-12-17, 01:33:00,VALID,917.959,VALID,0,VALID,96.4779,VALID,-0.101885,VALID,20.5197,VALID,34,VALID,0.611523,
2002-12-17, 01:34:00,VALID,917.942,VALID,0,VALID,96.5466,VALID,-0.101885,VALID,20.4809,VALID,17,VALID,0.533617,
2002-12-17, 01:35:00,VALID,917.929,VALID,0,VALID,96.5835,VALID,-0.118866,VALID,20.4518,VALID,8,VALID,0.351563,
2002-12-17, 01:36:00,VALID,917.906,VALID,0,VALID,96.7271,VALID,-0.101885,VALID,20.423,VALID,8,VALID,0.272636,
2002-12-17, 01:37:00,VALID,917.884,VALID,0,VALID,96.8301,VALID,0,VALID,20.4058,VALID,8,VALID,0.199747,
2002-12-17, 01:38:00,VALID,917.854,VALID,0,VALID,96.8187,VALID,-0.0169808,VALID,20.3436,VALID,8,VALID,0.325597,
2002-12-17, 01:39:00,VALID,917.834,VALID,0,VALID,96.9306,VALID,0,VALID,20.328,VALID,8,VALID,0.282853,
2002-12-17, 01:40:00,VALID,917.825,VALID,0,VALID,97.0629,VALID,-0.0169808,VALID,20.2852,VALID,8,VALID,0.293708,
2002-12-17, 01:41:00,VALID,917.795,VALID,0,VALID,97.2142,VALID,0,VALID,20.2626,VALID,71,VALID,0.354167,
2002-12-17, 01:42:00,VALID,917.773,VALID,0,VALID,97.3757,VALID,0,VALID,20.2569,VALID,117,VALID,0.427344,
2002-12-17, 01:43:00,VALID,917.744,VALID,0,VALID,97.4812,VALID,0.0169808,VALID,20.2435,VALID,132,VALID,0.696023,
2002-12-17, 01:44:00,VALID,917.701,VALID,0,VALID,97.5944,VALID,0,VALID,20.2311,VALID,116,VALID,0.586806,
2002-12-17, 01:45:00,VALID,917.666,VALID,0,VALID,97.747,VALID,0.0169808,VALID,20.2176,VALID,125,VALID,1.10508,
2002-12-17, 01:46:00,VALID,917.617,VALID,0,VALID,97.8093,VALID,0,VALID,20.2378,VALID,115,VALID,1.04261,
2002-12-17, 01:47:00,VALID,917.589,VALID,0,VALID,97.7686,VALID,0,VALID,20.2537,VALID,111,VALID,1.17992,
2002-12-17, 01:48:00,VALID,917.543,VALID,0,VALID,97.7165,VALID,0,VALID,20.2529,VALID,122,VALID,1.48698,
2002-12-17, 01:49:00,VALID,917.513,VALID,0,VALID,97.6376,VALID,0,VALID,20.279,VALID,100,VALID,1.06651,
2002-12-17, 01:50:00,VALID,917.459,VALID,0,VALID,97.5575,VALID,0,VALID,20.2885,VALID,126,VALID,1.24012,
2002-12-17, 01:51:00,VALID,917.425,VALID,0,VALID,97.5257,VALID,-0.0169808,VALID,20.3118,VALID,115,VALID,1.48838,
2002-12-17, 01:52:00,VALID,917.373,VALID,0,VALID,97.4049,VALID,-0.101885,VALID,20.339,VALID,114,VALID,1.21263,
2002-12-17, 01:53:00,VALID,917.337,VALID,0,VALID,97.279,VALID,-0.101885,VALID,20.3586,VALID,100,VALID,0.994792,
2002-12-17, 01:54:00,VALID,917.334,VALID,0,VALID,97.176,VALID,-0.101885,VALID,20.3581,VALID,107,VALID,1.10723,
2002-12-17, 01:55:00,VALID,917.322,VALID,0,VALID,97.148,VALID,-0.118866,VALID,20.3651,VALID,69,VALID,0.405066,
2002-12-17, 01:56:00,VALID,917.303,VALID,0,VALID,97.1455,VALID,-0.118866,VALID,20.3616,VALID,81,VALID,0.446832,
2002-12-17, 01:57:00,VALID,917.275,VALID,0,VALID,97.1442,VALID,-0.101885,VALID,20.3683,VALID,127,VALID,1.43711,
2002-12-17, 01:58:00,VALID,917.241,VALID,0,VALID,97.0883,VALID,-0.101885,VALID,20.3815,VALID,118,VALID,0.980587,
2002-12-17, 01:59:00,VALID,917.219,VALID,0,VALID,97.0158,VALID,-0.101885,VALID,20.3807,VALID,137,VALID,1.00689,
2002-12-17, 02:00:00,VALID,917.174,VALID,0,VALID,96.956,VALID,-0.101885,VALID,20.3969,VALID,126,VALID,0.861779,
2002-12-17, 02:01:00,VALID,917.148,VALID,0,VALID,96.9039,VALID,-0.0849042,VALID,20.3874,VALID,135,VALID,1.28568,
2002-12-17, 02:02:00,VALID,917.114,VALID,0,VALID,96.8314,VALID,-0.101885,VALID,20.3937,VALID,114,VALID,1.24127,
2002-12-17, 02:03:00,VALID,917.112,VALID,0,VALID,96.764,VALID,-0.101885,VALID,20.4009,VALID,125,VALID,0.866186,
2002-12-17, 02:04:00,VALID,917.101,VALID,0,VALID,96.7208,VALID,-0.101885,VALID,20.4036,VALID,137,VALID,1.29265,
2002-12-17, 02:05:00,VALID,917.098,VALID,0,VALID,96.675,VALID,-0.118866,VALID,20.4103,VALID,147,VALID,1.27127,
2002-12-17, 02:06:00,VALID,917.108,VALID,0,VALID,96.6801,VALID,-0.101885,VALID,20.3999,VALID,126,VALID,0.730859,
2002-12-17, 02:07:00,VALID,917.134,VALID,0,VALID,96.7055,VALID,-0.0339617,VALID,20.3899,VALID,129,VALID,1.06155,
2002-12-17, 02:08:00,VALID,917.156,VALID,0,VALID,96.7615,VALID,0,VALID,20.3862,VALID,132,VALID,1.0408,
2002-12-17, 02:09:00,VALID,917.159,VALID,0,VALID,96.7602,VALID,-0.0339617,VALID,20.3762,VALID,144,VALID,0.975586,
2002-12-17, 02:10:00,VALID,917.165,VALID,0,VALID,96.7538,VALID,-0.0169808,VALID,20.3899,VALID,151,VALID,1.24242,
2002-12-17, 02:11:00,VALID,917.172,VALID,0,VALID,96.6763,VALID,-0.0169808,VALID,20.3996,VALID,122,VALID,1.16636,
2002-12-17, 02:12:00,VALID,917.143,VALID,0,VALID,96.6089,VALID,0,VALID,20.4187,VALID,138,VALID,0.746394,
2002-12-17, 02:13:00,VALID,917.139,VALID,0,VALID,96.4715,VALID,0,VALID,20.4185,VALID,108,VALID,1.11803,
2002-12-17, 02:14:00,VALID,917.125,VALID,0,VALID,96.3355,VALID,-0.0169808,VALID,20.4317,VALID,140,VALID,1.39683,
2002-12-17, 02:15:00,VALID,917.091,VALID,0,VALID,96.2109,VALID,0,VALID,20.4575,VALID,89,VALID,0.822716,
2002-12-17, 02:16:00,VALID,917.078,VALID,0,VALID,96.0659,VALID,0.0169808,VALID,20.4672,VALID,98,VALID,1.40921,
2002-12-17, 02:17:00,VALID,917.051,VALID,0,VALID,95.9222,VALID,-0.0169808,VALID,20.4769,VALID,113,VALID,1.11458,
2002-12-17, 02:18:00,VALID,917.05,VALID,0,VALID,95.9133,VALID,0,VALID,20.4963,VALID,115,VALID,0.964844,
2002-12-17, 02:19:00,VALID,917.002,VALID,0,VALID,95.912,VALID,-0.0169808,VALID,20.4993,VALID,120,VALID,0.692708,
2002-12-17, 02:20:00,VALID,916.989,VALID,0,VALID,95.9108,VALID,0,VALID,20.4896,VALID,122,VALID,0.88737,
2002-12-17, 02:21:00,VALID,916.984,VALID,0,VALID,95.8675,VALID,-0.0169808,VALID,20.4931,VALID,107,VALID,0.829883,
2002-12-17, 02:22:00,VALID,916.959,VALID,0,VALID,95.6946,VALID,-0.0849042,VALID,20.507,VALID,104,VALID,1.50829,
2002-12-17, 02:23:00,VALID,916.955,VALID,0,VALID,95.5153,VALID,-0.101885,VALID,20.5294,VALID,92,VALID,1.02734,
2002-12-17, 02:24:00,VALID,916.947,VALID,0,VALID,95.4899,VALID,-0.0509425,VALID,20.5431,VALID,103,VALID,1.27284,
2002-12-17, 02:25:00,VALID,916.924,VALID,0,VALID,95.4123,VALID,-0.101885,VALID,20.5256,VALID,100,VALID,1.72931,
2002-12-17, 02:26:00,VALID,916.891,VALID,0,VALID,95.3729,VALID,-0.0849042,VALID,20.5361,VALID,114,VALID,1.11834,
2002-12-17, 02:27:00,VALID,916.85,VALID,0,VALID,95.3487,VALID,-0.0849042,VALID,20.5294,VALID,94,VALID,1.26362,
2002-12-17, 02:28:00,VALID,916.835,VALID,0,VALID,95.3424,VALID,-0.0849042,VALID,20.5391,VALID,113,VALID,1.35304,
2002-12-17, 02:29:00,VALID,916.824,VALID,0,VALID,95.3475,VALID,-0.0679233,VALID,20.542,VALID,101,VALID,1.12652,
2002-12-17, 02:30:00,VALID,916.816,VALID,0,VALID,95.4021,VALID,-0.0679233,VALID,20.5326,VALID,89,VALID,1.61934,
2002-12-17, 02:31:00,VALID,916.829,VALID,0,VALID,95.4199,VALID,-0.0679233,VALID,20.5162,VALID,99,VALID,1.20265,
2002-12-17, 02:32:00,VALID,916.822,VALID,0,VALID,95.378,VALID,-0.0849042,VALID,20.5127,VALID,99,VALID,1.50456,
2002-12-17, 02:33:00,VALID,916.822,VALID,0,VALID,95.1567,VALID,-0.0849042,VALID,20.5393,VALID,107,VALID,1.67695,
2002-12-17, 02:34:00,VALID,916.81,VALID,0,VALID,94.9876,VALID,-0.101885,VALID,20.5848,VALID,89,VALID,1.87618,
2002-12-17, 02:35:00,VALID,916.798,VALID,0,VALID,94.8973,VALID,-0.101885,VALID,20.6266,VALID,99,VALID,1.02367,
2002-12-17, 02:36:00,VALID,916.79,VALID,0,VALID,94.7943,VALID,-0.0679233,VALID,20.6191,VALID,95,VALID,1.5619,
2002-12-17, 02:37:00,VALID,916.771,VALID,0,VALID,94.7066,VALID,0,VALID,20.6474,VALID,87,VALID,1.88218,
2002-12-17, 02:38:00,VALID,916.763,VALID,0,VALID,94.615,VALID,0.0339617,VALID,20.6603,VALID,133,VALID,1.17601,
2002-12-17, 02:39:00,VALID,916.736,VALID,0,VALID,94.5082,VALID,0.0169808,VALID,20.6732,VALID,101,VALID,1.25581,
2002-12-17, 02:40:00,VALID,916.704,VALID,0,VALID,94.5769,VALID,0.0339617,VALID,20.6703,VALID,75,VALID,0.292019,
2002-12-17, 02:41:00,VALID,916.715,VALID,0,VALID,94.6811,VALID,0,VALID,20.6635,VALID,82,VALID,0.477214,
2002-12-17, 02:42:00,VALID,916.738,VALID,0,VALID,94.8909,VALID,0.0339617,VALID,20.6372,VALID,34,VALID,0.431641,
2002-12-17, 02:43:00,VALID,916.759,VALID,0,VALID,94.9914,VALID,0,VALID,20.6345,VALID,87,VALID,1.17353,
2002-12-17, 02:44:00,VALID,916.794,VALID,0,VALID,95.0677,VALID,0.0169808,VALID,20.6083,VALID,103,VALID,1.07574,
2002-12-17, 02:45:00,VALID,916.828,VALID,0,VALID,95.2279,VALID,0.0169808,VALID,20.5957,VALID,135,VALID,0.955469,
2002-12-17, 02:46:00,VALID,916.853,VALID,0,VALID,95.2101,VALID,0,VALID,20.5857,VALID,135,VALID,1.39276,
2002-12-17, 02:47:00,VALID,916.848,VALID,0,VALID,95.1389,VALID,0,VALID,20.5892,VALID,75,VALID,0.632813,
2002-12-17, 02:48:00,VALID,916.862,VALID,0,VALID,95.0041,VALID,0.0169808,VALID,20.6051,VALID,135,VALID,1.51242,
2002-12-17, 02:49:00,VALID,916.839,VALID,0,VALID,94.849,VALID,0.0679233,VALID,20.6178,VALID,136,VALID,1.60262,
2002-12-17, 02:50:00,VALID,916.831,VALID,0,VALID,94.5196,VALID,0.0339617,VALID,20.6576,VALID,143,VALID,1.65625,
2002-12-17, 02:51:00,VALID,916.817,VALID,0,VALID,94.3302,VALID,0.0169808,VALID,20.6891,VALID,142,VALID,1.4385,
2002-12-17, 02:52:00,VALID,916.81,VALID,0,VALID,94.2297,VALID,0,VALID,20.7187,VALID,139,VALID,1.88809,
2002-12-17, 02:53:00,VALID,916.795,VALID,0,VALID,94.1966,VALID,0.0339617,VALID,20.7147,VALID,138,VALID,1.39618,
2002-12-17, 02:54:00,VALID,916.776,VALID,0,VALID,94.2399,VALID,0.0339617,VALID,20.7311,VALID,134,VALID,0.934961,
2002-12-17, 02:55:00,VALID,916.767,VALID,0,VALID,94.1115,VALID,0.0339617,VALID,20.7274,VALID,148,VALID,1.38873,
2002-12-17, 02:56:00,VALID,916.729,VALID,0,VALID,94.1293,VALID,0.0509425,VALID,20.7441,VALID,129,VALID,0.899306,
2002-12-17, 02:57:00,VALID,916.731,VALID,0,VALID,94.0809,VALID,0.101885,VALID,20.7503,VALID,124,VALID,1.04512,
2002-12-17, 02:58:00,VALID,916.743,VALID,0,VALID,94.0008,VALID,0.0169808,VALID,20.7503,VALID,140,VALID,1.02131,
2002-12-17, 02:59:00,VALID,916.742,VALID,0,VALID,94.0682,VALID,0.0169808,VALID,20.757,VALID,131,VALID,0.911765,
2002-12-17, 03:00:00,VALID,916.765,VALID,0,VALID,94.1432,VALID,0.0509425,VALID,20.7505,VALID,140,VALID,1.51563,
2002-12-17, 03:01:00,VALID,916.764,VALID,0,VALID,93.9767,VALID,0,VALID,20.75,VALID,103,VALID,1.72698,
2002-12-17, 03:02:00,VALID,916.762,VALID,0,VALID,94.0797,VALID,0.0679233,VALID,20.7664,VALID,140,VALID,1.31181,
2002-12-17, 03:03:00,VALID,916.744,VALID,0,VALID,94.175,VALID,0.0509425,VALID,20.7697,VALID,142,VALID,1.1238,
2002-12-17, 03:04:00,VALID,916.744,VALID,0,VALID,94.2513,VALID,0.0339617,VALID,20.7538,VALID,142,VALID,0.822213,
2002-12-17, 03:05:00,VALID,916.724,VALID,0,VALID,94.4878,VALID,0.0509425,VALID,20.7403,VALID,158,VALID,0.817274,
2002-12-17, 03:06:00,VALID,916.713,VALID,0,VALID,94.5896,VALID,0.0339617,VALID,20.7209,VALID,176,VALID,0.785352,
2002-12-17, 03:07:00,VALID,916.682,VALID,0,VALID,94.6964,VALID,0.0339617,VALID,20.6856,VALID,162,VALID,0.817708,
2002-12-17, 03:08:00,VALID,916.664,VALID,0,VALID,94.8286,VALID,0.0679233,VALID,20.656,VALID,156,VALID,1.04188,
2002-12-17, 03:09:00,VALID,916.645,VALID,0,VALID,94.999,VALID,0.0339617,VALID,20.6369,VALID,166,VALID,0.863672,
2002-12-17, 03:10:00,VALID,916.621,VALID,0,VALID,95.1338,VALID,0.0339617,VALID,20.6113,VALID,148,VALID,1.13021,
2002-12-17, 03:11:00,VALID,916.59,VALID,0,VALID,95.2953,VALID,0.0509425,VALID,20.5922,VALID,149,VALID,0.84398,
2002-12-17, 03:12:00,VALID,916.565,VALID,0,VALID,95.4047,VALID,0.0679233,VALID,20.5594,VALID,151,VALID,1.96474,
2002-12-17, 03:13:00,VALID,916.56,VALID,0,VALID,95.542,VALID,0.0339617,VALID,20.5238,VALID,151,VALID,1.53611,
2002-12-17, 03:14:00,VALID,916.54,VALID,0,VALID,95.6743,VALID,0.0509425,VALID,20.5144,VALID,151,VALID,1.75092,
2002-12-17, 03:15:00,VALID,916.526,VALID,0,VALID,95.776,VALID,0.0339617,VALID,20.4912,VALID,176,VALID,1.0647,
2002-12-17, 03:16:00,VALID,916.487,VALID,0,VALID,95.865,VALID,0.0169808,VALID,20.4853,VALID,147,VALID,1.38345,
2002-12-17, 03:17:00,VALID,916.488,VALID,0,VALID,95.9337,VALID,0.0339617,VALID,20.4821,VALID,130,VALID,0.905165,
2002-12-17, 03:18:00,VALID,916.507,VALID,0,VALID,96.0659,VALID,0.0679233,VALID,20.4659,VALID,139,VALID,0.735352,
2002-12-17, 03:19:00,VALID,916.488,VALID,0,VALID,96.1244,VALID,0.0169808,VALID,20.45,VALID,154,VALID,1.12595,
2002-12-17, 03:20:00,VALID,916.476,VALID,0,VALID,96.16,VALID,0.0339617,VALID,20.4271,VALID,157,VALID,0.688151,
2002-12-17, 03:21:00,VALID,916.452,VALID,0,VALID,96.2452,VALID,0.0339617,VALID,20.4112,VALID,151,VALID,1.2668,
2002-12-17, 03:22:00,VALID,916.417,VALID,0,VALID,96.2376,VALID,-0.0339617,VALID,20.4093,VALID,174,VALID,1.24479,
2002-12-17, 03:23:00,VALID,916.387,VALID,0,VALID,96.2363,VALID,-0.0339617,VALID,20.3926,VALID,169,VALID,0.971048,
2002-12-17, 03:24:00,VALID,916.393,VALID,0,VALID,96.2223,VALID,-0.0339617,VALID,20.3794,VALID,161,VALID,1.15765,
2002-12-17, 03:25:00,VALID,916.394,VALID,0,VALID,96.2567,VALID,-0.0169808,VALID,20.37,VALID,173,VALID,1.25169,
2002-12-17, 03:26:00,VALID,916.406,VALID,0,VALID,96.2999,VALID,-0.0339617,VALID,20.3576,VALID,172,VALID,0.931066,
2002-12-17, 03:27:00,VALID,916.426,VALID,0,VALID,96.3177,VALID,-0.0169808,VALID,20.3511,VALID,167,VALID,1.19451,
2002-12-17, 03:28:00,VALID,916.435,VALID,0,VALID,96.3584,VALID,-0.0339617,VALID,20.3511,VALID,196,VALID,1.09713,
2002-12-17, 03:29:00,VALID,916.439,VALID,0,VALID,96.2948,VALID,-0.0509425,VALID,20.3608,VALID,193,VALID,1.04123,
2002-12-17, 03:30:00,VALID,916.436,VALID,0,VALID,96.2185,VALID,-0.0339617,VALID,20.3673,VALID,209,VALID,0.64043,
2002-12-17, 03:31:00,VALID,916.433,VALID,0,VALID,96.1486,VALID,-0.0339617,VALID,20.3576,VALID,185,VALID,0.786222,
2002-12-17, 03:32:00,VALID,916.46,VALID,0,VALID,96.1791,VALID,0,VALID,20.3379,VALID,174,VALID,1.15516,
2002-12-17, 03:33:00,VALID,916.473,VALID,0,VALID,96.2465,VALID,-0.0169808,VALID,20.3285,VALID,187,VALID,0.675195,